Abakan, Russia

3:43 AM +07 on December 06, 2019 (GMT +0700)
Abakan

Weather History for UNAA - September, 2019

Change the Weather History Date:

Friday, September 27, 2019

  Actual Average Record
Temperature  
Mean Temperature 44 °F -  
Max Temperature 53 °F - - ()
Min Temperature 35 °F - - ()
Degree Days  
Heating Degree Days 21    
Moisture  
Dew Point 36 °F    
Average Humidity 73    
Maximum Humidity 100    
Minimum Humidity 44    
Precipitation  
Precipitation 0.00 in - - ()
Sea Level Pressure  
Sea Level Pressure 30.13 in    
Wind  
Wind Speed 3 mph ()    
Max Wind Speed 7 mph    
Max Gust Speed -    
Visibility 5.7 miles    
Events      
T = Trace of Precipitation, MM = Missing Value Source: Averaged Metar Reports

Daily Weather History Graph

Daily Weather History Graph

Search for Another Location

Airport or City:

Astronomy

Sep. 27, 2019 Rise Set
Actual Time 6:47 AM +07 6:42 PM +07
Civil Twilight 6:12 AM +07 7:17 PM +07
Nautical Twilight 5:31 AM +07 7:58 PM +07
Astronomical Twilight 4:48 AM +07 8:41 PM +07
Moon 4:00 AM +07 (9/27) 6:37 PM +07 (9/27)
Length of Visible Light 13h 04m
Length of Day
11h 54m
Waning Crescent, 4% of the Moon is Illuminated
Sep 27
Waning Crescent
Sep 29
New
Oct 5
First Quarter
Oct 14
Full
Oct 21
Last Quarter

Hourly Weather History & Observations

Time (+07) Temp. Windchill Dew Point Humidity Pressure Visibility Wind Dir Wind Speed Gust Speed Precip Events Conditions
12:00 AM 41.0 °F 36.5 °F 39.2 °F 93% 30.21 in - South 6.7 mph - N/A   Clear
12:30 AM 42.8 °F 40.2 °F 39.2 °F 87% 30.21 in - SSE 4.5 mph - N/A   Clear
1:00 AM 42.8 °F - 37.4 °F 81% 30.21 in - SE 2.2 mph - N/A   Clear
1:30 AM 41.0 °F - 39.2 °F 93% 30.21 in - Calm Calm - N/A   Clear
2:30 AM 41.0 °F 38.1 °F 37.4 °F 87% 30.21 in - SSE 4.5 mph - N/A   Clear
3:00 AM 41.0 °F - 35.6 °F 81% 30.21 in - SSE 2.2 mph - N/A   Clear
3:30 AM 41.0 °F - 37.4 °F 87% 30.21 in - ESE 2.2 mph - N/A   Clear
4:00 AM 39.2 °F - 37.4 °F 93% 30.24 in - Calm Calm - N/A   Clear
4:30 AM 39.2 °F - 35.6 °F 87% 30.24 in - Calm Calm - N/A   Clear
5:00 AM 39.2 °F - 37.4 °F 93% 30.24 in - SSE 2.2 mph - N/A   Clear
5:30 AM 37.4 °F - 35.6 °F 93% 30.24 in - Calm Calm - N/A   Clear
6:30 AM 37.4 °F - 35.6 °F 93% 30.24 in - North 2.2 mph - N/A   Clear
7:00 AM 35.6 °F - 35.6 °F 100% 30.24 in 5.6 mi NW 2.2 mph - N/A   Unknown
7:30 AM 35.6 °F - 33.8 °F 93% 30.24 in 5.6 mi Calm Calm - N/A   Unknown
8:00 AM 37.4 °F - 37.4 °F 100% 30.24 in - SSE 2.2 mph - N/A   Clear
8:30 AM 41.0 °F - 39.2 °F 93% 30.24 in - SSW 2.2 mph - N/A   Clear
9:00 AM 42.8 °F - 37.4 °F 81% 30.24 in - SSE 2.2 mph - N/A   Clear
9:30 AM 44.6 °F 42.3 °F 37.4 °F 76% 30.21 in - SSE 4.5 mph - N/A   Clear
10:00 AM 46.4 °F 44.4 °F 37.4 °F 71% 30.21 in - SSE 4.5 mph - N/A   Clear
10:30 AM 48.2 °F - 37.4 °F 66% 30.21 in - Variable 2.2 mph - N/A   Clear
11:00 AM 48.2 °F - 35.6 °F 62% 30.21 in - Variable 2.2 mph - N/A   Clear
11:30 AM 50.0 °F - 35.6 °F 58% 30.18 in - Variable 6.7 mph - N/A   Clear
12:00 PM 51.8 °F - 35.6 °F 54% 30.18 in 6.2 mi Variable 2.2 mph - N/A   Partly Cloudy
12:30 PM 50.0 °F - 35.6 °F 58% 30.15 in 6.2 mi SSE 4.5 mph - N/A   Partly Cloudy
1:00 PM 51.8 °F - 35.6 °F 54% 30.15 in 6.2 mi SE 4.5 mph - N/A   Scattered Clouds
1:30 PM 51.8 °F - 35.6 °F 54% 30.12 in - SSE 4.5 mph - N/A   Clear
2:00 PM 53.6 °F - 37.4 °F 54% 30.12 in 6.2 mi Variable 4.5 mph - N/A   Scattered Clouds
2:30 PM 51.8 °F - 32.0 °F 47% 30.12 in 6.2 mi Variable 4.5 mph - N/A   Scattered Clouds
3:00 PM 53.6 °F - 33.8 °F 47% 30.09 in - Variable 2.2 mph - N/A   Clear
3:30 PM 53.6 °F - 32.0 °F 44% 30.09 in - Variable 4.5 mph - N/A   Clear
4:00 PM 53.6 °F - 32.0 °F 44% 30.06 in - Variable 4.5 mph - N/A   Clear
4:30 PM 53.6 °F - 32.0 °F 44% 30.06 in - Variable 4.5 mph - N/A   Clear
5:00 PM 53.6 °F - 32.0 °F 44% 30.06 in - Variable 6.7 mph - N/A   Clear
6:00 PM 51.8 °F - 35.6 °F 54% 30.04 in - North 4.5 mph - N/A   Clear
6:30 PM 50.0 °F - 35.6 °F 58% 30.04 in - NNW 4.5 mph - N/A   Clear
7:00 PM 46.4 °F 44.4 °F 39.2 °F 76% 30.01 in - NW 4.5 mph - N/A   Clear
7:30 PM 46.4 °F 44.4 °F 39.2 °F 76% 30.01 in 5.0 mi NNW 4.5 mph - N/A   Unknown
8:00 PM 44.6 °F 40.8 °F 39.2 °F 81% 29.98 in 5.6 mi NNE 6.7 mph - N/A   Unknown
8:30 PM 46.4 °F 44.4 °F 35.6 °F 66% 29.98 in - SE 4.5 mph - N/A   Clear
9:00 PM 46.4 °F - 35.6 °F 66% 29.98 in - Variable 2.2 mph - N/A   Clear
9:30 PM 46.4 °F - 35.6 °F 66% 29.95 in 4.3 mi Calm Calm - N/A   Unknown
10:00 PM 42.8 °F 40.2 °F 35.6 °F 76% 29.95 in - WNW 4.5 mph - N/A   Clear
10:30 PM 41.0 °F 38.1 °F 35.6 °F 81% 29.92 in - SW 4.5 mph - N/A   Clear
11:00 PM 37.4 °F 33.9 °F 33.8 °F 87% 29.92 in - West 4.5 mph - N/A   Clear
11:30 PM 37.4 °F 32.2 °F 35.6 °F 93% 29.92 in - West 6.7 mph - N/A   Clear